Location: Cz?stochówka
(50.8142°N, 19.0915°E)
Time: 20:26:23
(UTC+00:00)

Cosmos 614 Rocket - Pass Details

Date: 13 January 2026
Orbit: 728 x 757 km, 74.1° (Epoch: 13 February)

Event Time Altitude Azimuth Distance (km) Brightness Sun altitude
Exits shadow 04:47:45 30° 271° (W) 1,304 4.6 -17.2°
Maximum altitude 04:49:11 35° 305° (NW) 1,161 4.4 -17.0°
Drops below altitude 10° 04:53:49 10° 12° (NNE) 2,236 6.4 -16.2°
Sets 04:56:22 0° 21° (NNE) 3,163 7.3 -15.9°
